Leesburg, VA

8:34 AM EDT on October 23, 2019 (GMT -0400)
Leesburg Executive

Weather History for KJYO - May, 2019

Change the Weather History Date:

Tuesday, May 21, 2019

  Actual Average (WUND) Record (WUND)
Temperature  
Mean Temperature 64 °F -  
Max Temperature 71 °F - - (-1)
Min Temperature 55 °F - - (-1)
Degree Days  
Heating Degree Days 1    
Growing Degree Days 14 (Base 50)    
Moisture  
Dew Point 48 °F    
Average Humidity 56    
Maximum Humidity 82    
Minimum Humidity 38    
Precipitation  
Precipitation 0.00 in - - ()
Sea Level Pressure  
Sea Level Pressure 30.05 in    
Wind  
Wind Speed 10 mph (NNW)    
Max Wind Speed 17 mph    
Max Gust Speed 25 mph    
Visibility 10 miles    
Events      
Averages and records for this station are not official NWS values.
T = Trace of Precipitation, MM = Missing Value Source: NWS Daily Summary

Daily Weather History Graph

Daily Weather History Graph

Search for Another Location

Airport or City:

Astronomy

May. 21, 2019 Rise Set
Actual Time 5:52 AM EDT 8:21 PM EDT
Civil Twilight 5:22 AM EDT 8:52 PM EDT
Nautical Twilight 4:44 AM EDT 9:30 PM EDT
Astronomical Twilight 4:01 AM EDT 10:12 PM EDT
Moon 11:15 PM EDT (5/21) 8:07 AM EDT (5/21)
Length of Visible Light 15h 30m
Length of Day
14h 28m
Waning Gibbous, 91% of the Moon is Illuminated
May 21
Waning Gibbous
May 26
Last Quarter
Jun 3
New
Jun 10
First Quarter
Jun 17
Full

Hourly Weather History & Observations

Time (EDT) Temp. Dew Point Humidity Pressure Visibility Wind Dir Wind Speed Gust Speed Precip Events Conditions
12:15 AM 69.8 °F 55.4 °F 60% 29.92 in 10.0 mi NNW 9.2 mph - N/A   Clear
12:35 AM 69.8 °F 55.4 °F 60% 29.92 in 10.0 mi NNW 11.5 mph - N/A   Clear
12:55 AM 69.8 °F 55.4 °F 60% 29.93 in 10.0 mi NNW 8.1 mph - N/A   Clear
1:15 AM 68.0 °F 55.4 °F 64% 29.93 in 10.0 mi North 15.0 mph 19.6 mph N/A   Clear
1:35 AM 68.0 °F 53.6 °F 60% 29.93 in 10.0 mi NNW 11.5 mph 18.4 mph N/A   Clear
1:55 AM 68.0 °F 53.6 °F 60% 29.94 in 10.0 mi North 6.9 mph - N/A   Clear
2:15 AM 66.2 °F 53.6 °F 64% 29.94 in 10.0 mi North 11.5 mph - N/A   Clear
2:35 AM 64.4 °F 53.6 °F 68% 29.95 in 10.0 mi North 8.1 mph 17.3 mph N/A   Clear
2:55 AM 64.4 °F 53.6 °F 68% 29.96 in 10.0 mi NNW 9.2 mph - N/A   Clear
3:15 AM 62.6 °F 53.6 °F 72% 29.96 in 10.0 mi NNW 9.2 mph - N/A   Clear
3:35 AM 62.6 °F 53.6 °F 72% 29.96 in 10.0 mi NNW 8.1 mph - N/A   Clear
3:55 AM 62.6 °F 53.6 °F 72% 29.95 in 10.0 mi NNW 8.1 mph - N/A   Clear
4:35 AM 60.8 °F 51.8 °F 72% 29.97 in 10.0 mi NNW 9.2 mph 16.1 mph N/A   Clear
4:55 AM 60.8 °F 51.8 °F 72% 29.97 in 10.0 mi NNW 8.1 mph - N/A   Clear
5:15 AM 60.8 °F 51.8 °F 72% 29.98 in 10.0 mi North 8.1 mph 18.4 mph N/A   Clear
5:35 AM 60.8 °F 50.0 °F 68% 30.00 in 10.0 mi North 9.2 mph - N/A   Scattered Clouds
5:55 AM 60.8 °F 50.0 °F 68% 30.00 in 10.0 mi NNW 11.5 mph 19.6 mph N/A   Overcast
6:15 AM 59.0 °F 46.4 °F 63% 30.02 in 10.0 mi North 13.8 mph 21.9 mph N/A   Scattered Clouds
6:35 AM 59.0 °F 46.4 °F 63% 30.03 in 10.0 mi North 15.0 mph 23.0 mph N/A   Clear
6:55 AM 59.0 °F 46.4 °F 63% 30.04 in 10.0 mi North 8.1 mph - N/A   Scattered Clouds
7:15 AM 59.0 °F 46.4 °F 63% 30.04 in 10.0 mi North 13.8 mph 21.9 mph N/A   Scattered Clouds
7:35 AM 59.0 °F 46.4 °F 63% 30.04 in 10.0 mi NNW 16.1 mph - N/A   Clear
7:55 AM 59.0 °F 46.4 °F 63% 30.06 in 10.0 mi North 11.5 mph 25.3 mph N/A   Clear
8:15 AM 60.8 °F 46.4 °F 59% 30.06 in 10.0 mi NNW 17.3 mph 20.7 mph N/A   Clear
8:35 AM 60.8 °F 46.4 °F 59% 30.07 in 10.0 mi North 15.0 mph 20.7 mph N/A   Clear
8:55 AM 60.8 °F 46.4 °F 59% 30.08 in 10.0 mi North 15.0 mph 23.0 mph N/A   Clear
9:15 AM 60.8 °F 46.4 °F 59% 30.08 in 10.0 mi North 16.1 mph - N/A   Scattered Clouds
9:35 AM 60.8 °F 46.4 °F 59% 30.09 in 10.0 mi North 11.5 mph 20.7 mph N/A   Scattered Clouds
9:55 AM 62.6 °F 46.4 °F 55% 30.09 in 10.0 mi North 12.7 mph 20.7 mph N/A   Scattered Clouds
10:15 AM 62.6 °F 46.4 °F 55% 30.08 in 10.0 mi NNW 16.1 mph 19.6 mph N/A   Clear
10:35 AM 62.6 °F 46.4 °F 55% 30.09 in 10.0 mi North 13.8 mph - N/A   Clear
10:55 AM 62.6 °F 46.4 °F 55% 30.08 in 10.0 mi NNW 16.1 mph 24.2 mph N/A   Clear
11:15 AM 62.6 °F 46.4 °F 55% 30.08 in 10.0 mi North 13.8 mph 17.3 mph N/A   Clear
11:35 AM 64.4 °F 46.4 °F 52% 30.10 in 10.0 mi NNW 10.4 mph 18.4 mph N/A   Clear
11:55 AM 64.4 °F 46.4 °F 52% 30.09 in 10.0 mi NW 15.0 mph 20.7 mph N/A   Clear
12:15 PM 64.4 °F 46.4 °F 52% 30.09 in 10.0 mi NNW 13.8 mph 20.7 mph N/A   Clear
12:35 PM 64.4 °F 46.4 °F 52% 30.08 in 10.0 mi NW 11.5 mph 20.7 mph N/A   Clear
12:55 PM 66.2 °F 44.6 °F 46% 30.09 in 10.0 mi North 8.1 mph 20.7 mph N/A   Clear
1:15 PM 64.4 °F 44.6 °F 49% 30.08 in 5.0 mi NNW 11.5 mph 17.3 mph N/A   Clear
1:35 PM 68.0 °F 46.4 °F 46% 30.08 in 10.0 mi NNW 11.5 mph - N/A   Clear
1:55 PM 66.2 °F 42.8 °F 43% 30.07 in 10.0 mi North 10.4 mph - N/A   Clear
2:15 PM 68.0 °F 44.6 °F 43% 30.06 in 10.0 mi NNW 5.8 mph 16.1 mph N/A   Clear
2:35 PM 68.0 °F 44.6 °F 43% 30.08 in 10.0 mi North 11.5 mph 19.6 mph N/A   Clear
2:55 PM 68.0 °F 44.6 °F 43% 30.07 in 10.0 mi North 4.6 mph 17.3 mph N/A   Clear
3:15 PM 69.8 °F 46.4 °F 43% 30.06 in 10.0 mi NNW 5.8 mph 17.3 mph N/A   Clear
3:35 PM 69.8 °F 46.4 °F 43% 30.07 in 10.0 mi North 10.4 mph 17.3 mph N/A   Clear
3:55 PM 69.8 °F 46.4 °F 43% 30.07 in 10.0 mi NW 9.2 mph 16.1 mph N/A   Clear
4:15 PM 69.8 °F 44.6 °F 40% 30.07 in 10.0 mi NE 6.9 mph - N/A   Clear
4:35 PM 69.8 °F 44.6 °F 40% 30.08 in 10.0 mi North 9.2 mph - N/A   Clear
4:55 PM 69.8 °F 46.4 °F 43% 30.08 in 10.0 mi NNW 5.8 mph - N/A   Clear
5:15 PM 69.8 °F 46.4 °F 43% 30.08 in 10.0 mi North 10.4 mph - N/A   Clear
5:35 PM 71.6 °F 44.6 °F 38% 30.08 in 10.0 mi North 10.4 mph - N/A   Clear
5:55 PM 69.8 °F 44.6 °F 40% 30.09 in 10.0 mi North 8.1 mph 16.1 mph N/A   Clear
6:15 PM 69.8 °F 44.6 °F 40% 30.08 in 10.0 mi North 10.4 mph 16.1 mph N/A   Clear
6:35 PM 69.8 °F 46.4 °F 43% 30.08 in 10.0 mi NNW 6.9 mph - N/A   Clear
6:55 PM 69.8 °F 44.6 °F 40% 30.09 in 10.0 mi North 8.1 mph - N/A   Clear
7:15 PM 68.0 °F 44.6 °F 43% 30.09 in 10.0 mi NNW 4.6 mph - N/A   Mostly Cloudy
7:35 PM 68.0 °F 46.4 °F 46% 30.09 in 10.0 mi NNW 5.8 mph - N/A   Overcast
7:55 PM 68.0 °F 48.2 °F 49% 30.10 in 10.0 mi NNW 3.5 mph - N/A   Overcast
8:35 PM 64.4 °F 50.0 °F 59% 30.11 in 10.0 mi Calm Calm - N/A   Mostly Cloudy
8:55 PM 64.4 °F 48.2 °F 56% 30.12 in 10.0 mi North 5.8 mph - N/A   Mostly Cloudy
9:15 PM 64.4 °F 46.4 °F 52% 30.13 in 10.0 mi North 4.6 mph - N/A   Scattered Clouds
9:35 PM 64.4 °F 46.4 °F 52% 30.13 in 10.0 mi North 4.6 mph - N/A   Clear
9:55 PM 62.6 °F 46.4 °F 55% 30.13 in 10.0 mi Calm Calm - N/A   Clear
10:15 PM 62.6 °F 44.6 °F 52% 30.14 in 10.0 mi NNE 4.6 mph - N/A   Clear
10:35 PM 62.6 °F 46.4 °F 55% 30.14 in 10.0 mi NNE 5.8 mph - N/A   Clear
10:55 PM 59.0 °F 48.2 °F 67% 30.15 in 10.0 mi Calm Calm - N/A   Clear
11:15 PM 57.2 °F 51.8 °F 82% 30.15 in 10.0 mi NNW 3.5 mph - N/A   Clear
11:35 PM 57.2 °F 50.0 °F 77% 30.15 in 10.0 mi Calm Calm - N/A   Clear
11:55 PM 55.4 °F 50.0 °F 82% 30.15 in 10.0 mi Calm Calm - N/A   Clear